Find Starlink 37163

NORAD ID: 68264 Int'l Des: 2026-055 Owner: SPXS Country: US Constellation: starlink operational
LEOCIRCULAR

Current View

Loading 3D Globe...

About Starlink 37163

Starlink 37163 (NORAD 68264) is a starlink constellation satellite (v2 mini) launched Mar 19, 2026 by SPXS of US. It operates in LEO, CIRCULAR orbit with a mass of 575.00 kg.

About Starlink 37163

Description loading...

Upcoming Passes

Passes for default location (London). Set your location on the main map for personalized predictions.

Altitude History

Loading altitude history...

Two-Line Element Set

1 68264U 26055C 26168.41059933 .00014425 00000-0 43719-3 0 9994
2 68264 53.1567 214.3050 0000978 89.9215 270.1900 15.34404159 15223
Epoch: Jun 17, 2026 • Age: 23 hours

Current Status

Altitude 469.2 km
Velocity 7.63 km/s
Sub-Earth Point -22.34°S, 11.45°E
Launch Date Mar 19, 2026
Age 0.2 years
Type internet

Technical Details

Classification Payload
Mass 575.00 kg
Dry Mass 530.00 kg
Total Mass 575.00 kg
Length 0.30 m
Diameter 4.10 m
Span 29.00 m
Shape Box + pan
Manufacturer SPXS
Bus Type Starlink V2MO
Phase Status In Orbit
Owner/State SPXS/US

Most Searched